This is the latest recevied weather packets stored in our database for station/object W8DRH-13. If no packets are shown the sender has not sent any weather packets the latest 10 day(s).
| Time | Temp. | Humidity | Pressure | Rain* | Wind** | Luminosity | Snow |
|---|---|---|---|---|---|---|---|
| 1778094647 | 12.78° C | 60% | 1010.2 hPa | 0 mm | - | 210 W/m² | - |
| 1778094345 | 12.22° C | 60% | 1010 hPa | 0 mm | - | 186 W/m² | - |
| 1778094036 | 12.78° C | 61% | 1010 hPa | 0 mm | - | 232 W/m² | - |
| 1778093734 | 12.78° C | 62% | 1010 hPa | 0 mm | - | 193 W/m² | - |
| 1778093430 | 12.22° C | 60% | 1009.9 hPa | 0 mm | - | 209 W/m² | - |
| 1778093128 | 12.22° C | 61% | 1010.1 hPa | 0 mm | - | 236 W/m² | - |
| 1778092825 | 12.78° C | 65% | 1010 hPa | 0 mm | - | 201 W/m² | - |
| 1778092520 | 12.22° C | 63% | 1010.3 hPa | 0 mm | - | 131 W/m² | - |
| 1778092217 | 12.22° C | 66% | 1010.4 hPa | 0 mm | - | 123 W/m² | - |
| 1778091914 | 12.22° C | 63% | 1010.4 hPa | 0 mm | - | 121 W/m² | - |
| 1778091612 | 12.22° C | 61% | 1010.5 hPa | 0 mm | - | 121 W/m² | - |
| 1778091309 | 12.22° C | 58% | 1010.4 hPa | 0 mm | - | 138 W/m² | - |
| 1778091006 | 12.78° C | 65% | 1010.3 hPa | 0 mm | - | 184 W/m² | - |
| 1778090703 | 12.78° C | 58% | 1010.2 hPa | 0 mm | - | 182 W/m² | - |
| 1778090399 | 13.33° C | 61% | 1009.9 hPa | 0 mm | - | 241 W/m² | - |
| 1778090095 | 13.89° C | 57% | 1009.9 hPa | 0 mm | - | 392 W/m² | - |
| 1778089787 | 13.89° C | 62% | 1009.8 hPa | 0 mm | - | 476 W/m² | - |
| 1778089485 | 13.89° C | 65% | 1010.1 hPa | 0 mm | - | 651 W/m² | - |
| 1778089181 | 13.89° C | 65% | 1010 hPa | 0 mm | - | 225 W/m² | - |
| 1778088879 | 13.89° C | 66% | 1010 hPa | 0 mm | - | 616 W/m² | - |
| 1778088575 | 13.89° C | 61% | 1009.9 hPa | 0 mm | - | 682 W/m² | - |
| 1778088272 | 13.89° C | 63% | 1010.4 hPa | 0 mm | - | 919 W/m² | - |
| 1778087968 | 13.89° C | 68% | 1010.1 hPa | 0 mm | - | 819 W/m² | - |
| 1778087666 | 13.89° C | 66% | 1010.1 hPa | 0 mm | - | 676 W/m² | - |
| 1778087358 | 13.33° C | 66% | 1009.9 hPa | 0 mm | - | 934 W/m² | - |
* Rain latest hour (hover to see other rain measurements)
** Current wind speed in m/s (hover to see current wind gust speed)